Date,TemperatureHighF,TemperatureAvgF,TemperatureLowF,DewpointHighF,DewpointAvgF,DewpointLowF,HumidityHigh,HumidityAvg,HumidityLow,PressureMaxIn,PressureMinIn,WindSpeedMaxMPH,WindSpeedAvgMPH,GustSpeedMaxMPH,PrecipitationSumIn
2013-1-1,43.6,32.6,27.1,37.9,30.9,26.1,97,93,77,30.51,30.36,3,0,7,0.01
2013-1-2,50.1,33.0,25.1,39.0,27.5,23.9,97,83,43,30.36,30.20,5,0,12,0.01
2013-1-3,49.0,33.7,22.9,34.2,26.6,21.4,96,78,43,30.20,30.08,6,1,14,0.08
2013-1-4,47.9,42.3,35.7,44.6,40.5,34.4,96,93,86,30.30,30.15,5,1,9,0.01
2013-1-5,44.1,40.7,38.6,40.8,38.6,37.2,96,92,84,30.20,30.10,3,0,8,0.20
2013-1-6,46.2,42.1,39.8,41.3,39.8,38.6,100,91,80,30.16,29.98,5,2,13,0.28
2013-1-7,49.5,45.1,41.0,48.7,43.5,39.4,97,94,81,30.15,29.81,7,2,14,0.88
2013-1-8,51.5,46.1,41.3,49.6,44.5,40.0,96,94,91,30.15,29.70,11,3,28,0.37
2013-1-9,51.2,39.1,33.1,48.9,37.9,32.1,97,95,90,29.95,29.66,11,1,22,1.55
2013-1-10,39.2,34.0,27.4,37.5,32.9,26.4,97,96,91,30.11,29.94,7,0,10,0.01
2013-1-11,37.3,28.0,21.2,32.2,26.3,19.7,96,93,80,30.34,30.11,3,0,6,0.01
2013-1-12,39.2,26.9,20.3,32.6,23.9,18.6,96,89,64,30.45,30.33,5,0,8,0.01
2013-1-13,36.3,24.7,18.5,28.8,21.7,16.6,94,89,69,30.49,30.45,2,0,5,0.00
2013-1-14,34.4,32.4,31.1,33.1,30.8,28.6,96,93,90,30.56,30.48,2,0,5,0.02
2013-1-15,45.4,35.3,27.9,38.2,32.5,26.4,96,90,67,30.71,30.57,5,1,8,0.00
2013-1-16,45.0,29.1,22.6,36.6,26.8,21.0,96,91,72,30.69,30.53,3,0,5,0.01
2013-1-17,34.0,29.9,26.9,33.0,29.0,25.7,97,96,95,30.53,30.30,2,0,4,0.00
2013-1-18,34.7,30.5,26.0,33.9,29.6,25.0,97,97,96,30.35,30.26,4,0,7,0.01
2013-1-19,34.4,31.7,29.5,33.9,31.0,28.8,98,97,97,30.40,30.34,2,0,4,0.01
2013-1-20,35.5,31.8,28.6,35.0,31.1,27.9,98,97,97,30.40,30.27,2,0,4,0.00
2013-1-21,33.4,31.1,29.2,32.9,30.4,28.5,98,97,97,30.27,30.14,2,0,5,0.01
2013-1-22,39.3,31.0,24.2,38.8,30.1,23.0,98,97,95,30.17,29.90,2,0,4,0.01
2013-1-23,41.1,38.2,34.4,40.3,37.3,33.6,97,97,95,30.13,29.83,3,0,7,0.47
2013-1-24,45.6,41.7,38.7,41.6,39.7,37.9,97,93,79,30.21,30.03,3,1,11,0.27
2013-1-25,51.4,44.6,37.0,45.1,42.0,35.8,97,91,78,30.05,29.92,6,1,13,0.00
2013-1-26,42.3,40.1,38.6,40.6,38.8,37.4,97,95,89,30.02,29.87,5,1,11,0.63
2013-1-27,42.2,39.7,37.9,41.1,38.8,36.9,97,97,96,30.05,29.97,3,1,10,0.87
2013-1-28,39.8,38.3,37.1,39.0,37.4,36.1,97,97,96,30.07,29.98,4,1,11,1.63
2013-1-29,43.5,41.3,38.6,42.8,40.6,37.8,100,97,96,30.33,30.07,3,0,6,0.84
2013-1-30,48.9,45.4,42.3,48.0,44.7,41.5,98,97,97,30.38,30.32,3,0,7,0.31
2013-1-31,48.5,46.1,44.7,46.9,45.1,44.1,98,96,91,30.38,30.29,4,1,12,0.14
2013-2-1,53.4,45.0,36.5,47.2,42.5,35.5,97,92,75,30.41,30.32,6,1,10,0.02
2013-2-2,42.5,37.8,33.3,42.0,37.0,32.5,98,97,96,30.39,30.25,3,0,6,0.01
2013-2-3,48.1,42.4,37.2,44.7,41.0,36.4,97,95,86,30.30,30.20,3,0,8,0.07
2013-2-4,51.2,45.7,43.8,45.0,43.2,42.1,97,91,75,30.20,29.87,3,1,9,0.01
2013-2-5,50.7,47.0,44.2,44.0,42.6,41.1,93,85,72,29.91,29.81,9,5,23,0.06
2013-2-6,48.5,45.8,43.9,42.4,40.9,39.3,91,83,71,30.03,29.81,7,3,18,0.07
2013-2-7,50.4,42.6,31.6,42.0,38.2,29.9,95,85,58,30.18,29.79,7,2,16,0.30
2013-2-8,44.7,35.9,28.1,38.8,33.4,27.1,97,91,77,30.31,30.19,5,0,8,0.01
2013-2-9,43.8,40.2,38.7,41.9,39.0,36.9,100,95,93,30.34,30.26,1,0,3,0.15
2013-2-10,47.4,39.3,31.4,41.9,36.5,30.4,100,90,75,30.38,30.32,4,0,7,0.00
2013-2-11,44.1,41.5,39.2,41.8,39.8,37.9,96,93,89,30.35,30.32,4,0,9,0.06
2013-2-12,49.2,45.0,41.6,46.0,43.0,40.5,97,93,85,30.40,30.26,5,1,13,0.00
2013-2-13,48.8,45.3,42.7,44.9,42.6,41.1,96,90,80,30.49,30.28,6,1,10,0.04
2013-2-14,49.5,45.1,41.6,44.6,42.7,40.3,96,91,81,30.56,30.49,4,1,11,0.10
2013-2-15,60.2,44.9,34.1,47.0,40.8,33.1,97,86,59,30.55,30.18,9,2,12,0.00
2013-2-16,48.3,41.0,33.9,45.6,38.7,32.7,97,92,78,30.19,30.12,10,2,23,0.29
2013-2-17,45.4,40.6,33.1,40.4,38.0,31.4,96,90,78,30.24,30.12,5,1,10,0.12
2013-2-18,46.6,38.8,31.5,38.8,35.1,30.4,97,87,72,30.11,29.76,4,1,12,0.00
2013-2-19,53.2,41.7,31.8,38.8,35.3,30.1,94,79,54,30.00,29.75,12,3,19,0.00
2013-2-20,45.0,37.9,30.6,40.2,35.7,29.3,96,92,79,30.04,29.99,3,0,11,0.04
2013-2-21,43.3,40.1,37.6,41.0,38.4,36.3,100,94,86,30.06,30.00,6,1,16,0.15
2013-2-22,45.6,41.6,35.3,42.3,39.2,34.2,97,91,84,30.03,29.66,11,4,27,0.52
2013-2-23,50.2,40.6,34.4,43.9,37.3,32.6,97,89,65,30.36,29.89,9,1,22,0.23
2013-2-24,47.5,43.1,36.2,39.5,37.7,34.9,96,81,71,30.37,29.94,7,3,20,0.02
2013-2-25,51.6,44.2,40.9,41.7,37.3,33.1,94,78,52,30.29,29.87,13,4,30,0.18
2013-2-26,47.8,41.5,31.4,38.0,34.0,29.9,96,76,58,30.34,30.18,6,2,16,0.00
2013-2-27,52.7,43.6,37.5,42.4,39.0,35.3,95,84,56,30.30,30.19,5,1,13,0.09
2013-2-28,52.7,45.4,40.2,50.4,43.8,38.2,96,94,89,30.29,30.18,7,2,21,0.46
2013-3-1,57.6,54.8,52.5,51.0,50.0,48.7,92,84,76,30.33,30.25,11,6,25,0.00
2013-3-2,57.0,49.7,39.5,49.2,44.2,35.5,94,82,72,30.25,30.04,11,4,23,0.35
2013-3-3,50.3,40.6,30.3,40.6,36.2,28.5,94,85,57,30.31,30.18,9,1,14,0.03
2013-3-4,55.4,39.7,26.2,37.5,30.5,24.9,96,73,37,30.31,29.95,7,1,12,0.00
2013-3-5,55.2,43.2,33.9,40.0,35.1,30.0,92,75,44,29.95,29.73,6,1,9,0.00
2013-3-6,43.9,40.9,36.1,42.0,39.2,34.3,96,93,88,29.88,29.58,8,2,11,0.55
2013-3-7,48.0,41.3,33.8,44.9,39.7,32.5,96,94,84,30.10,29.88,4,0,9,0.32
2013-3-8,53.7,39.0,30.8,45.0,35.5,29.8,97,88,65,30.24,30.08,9,1,16,0.01
2013-3-9,55.3,40.5,26.6,43.1,35.2,25.4,96,83,57,30.49,30.24,5,0,9,0.01
2013-3-10,48.4,40.8,32.6,41.7,37.2,31.3,96,87,69,30.50,30.42,3,0,7,0.00
2013-3-11,55.2,44.7,34.9,45.0,39.7,33.6,96,84,53,30.45,30.15,6,0,9,0.01
2013-3-12,53.7,51.6,48.1,50.3,48.1,43.8,95,88,82,30.15,30.03,9,3,21,0.34
2013-3-13,53.7,51.9,50.8,51.0,49.6,48.6,96,92,85,30.18,30.07,5,2,16,0.30
2013-3-14,54.0,51.3,49.1,51.3,48.2,45.0,97,89,78,30.14,30.01,6,2,19,0.04
2013-3-15,60.1,53.1,49.2,51.0,48.3,45.8,95,84,69,30.20,30.12,7,2,14,0.01
2013-3-16,51.8,45.0,36.8,47.1,42.6,35.5,96,92,76,30.13,29.87,11,2,20,0.53
2013-3-17,48.8,42.3,37.1,39.1,36.6,34.6,96,81,60,30.18,29.96,7,2,18,0.14
2013-3-18,52.7,44.2,35.6,40.5,36.0,30.0,95,75,45,30.24,30.09,12,3,25,0.12
2013-3-19,55.1,41.6,32.3,41.9,34.4,30.4,94,78,40,30.24,29.60,8,2,21,0.06
2013-3-20,54.3,48.0,37.7,48.6,42.3,32.9,94,81,66,29.97,29.36,16,6,42,0.44
2013-3-21,50.3,39.7,35.4,41.1,35.2,32.3,94,84,60,30.18,30.01,10,2,20,0.02
2013-3-22,50.3,38.5,31.0,37.0,33.1,27.4,95,82,48,30.38,30.19,9,1,13,0.00
2013-3-23,53.2,39.3,29.3,35.3,30.1,26.8,95,73,39,30.41,30.30,7,1,10,0.00
2013-3-24,57.7,41.1,28.2,36.8,31.4,26.7,95,72,37,30.31,30.12,4,1,10,0.00
2013-3-25,64.4,46.0,30.0,39.2,32.8,28.0,94,65,30,30.15,29.94,9,2,13,0.00
2013-3-26,63.6,45.2,35.0,42.4,36.8,32.1,91,75,41,30.01,29.96,8,1,11,0.00
2013-3-27,58.4,47.8,41.8,45.6,41.4,38.8,91,79,59,29.99,29.94,5,1,9,0.00
2013-3-28,66.1,49.2,37.8,49.7,42.6,36.2,95,80,52,30.13,29.99,5,1,11,0.00
2013-3-29,65.9,51.5,39.5,50.3,44.4,37.9,96,79,52,30.25,30.15,9,2,14,0.00
2013-3-30,66.6,48.4,37.0,51.0,42.1,36.0,97,81,52,30.27,30.08,10,2,16,0.00
2013-3-31,71.7,53.2,34.4,49.8,42.3,32.9,96,71,39,30.08,29.90,7,2,12,0.00
2013-4-1,61.6,47.4,36.6,50.0,43.2,35.0,96,86,65,30.13,29.96,6,1,14,0.00
2013-4-2,55.0,51.7,47.2,48.8,46.5,44.7,92,82,72,30.19,30.15,4,1,11,0.00
2013-4-3,65.9,52.7,46.1,49.8,46.0,43.7,93,80,48,30.18,29.94,7,1,11,0.00
2013-4-4,56.2,52.6,47.6,54.4,49.4,44.8,95,89,81,29.95,29.62,7,1,20,0.36
2013-4-5,59.4,54.0,49.9,51.2,48.7,45.2,94,83,65,29.84,29.70,11,5,23,0.15
2013-4-6,55.1,49.9,47.0,47.4,44.1,40.4,92,81,68,29.90,29.68,9,4,22,0.10
2013-4-7,46.9,43.6,41.3,44.0,41.5,39.6,96,92,78,29.87,29.51,6,2,11,1.33
2013-4-8,54.1,45.8,41.9,46.5,43.3,40.3,96,91,72,30.25,29.88,2,0,6,0.06
2013-4-9,55.5,48.7,42.3,45.5,43.2,41.0,100,82,64,30.33,30.17,6,1,13,0.00
2013-4-10,56.4,51.6,44.7,49.8,44.8,40.5,94,78,63,30.24,29.88,15,5,25,0.14
2013-4-11,58.8,48.1,37.7,43.6,40.6,34.8,95,77,49,30.29,30.20,10,2,16,0.20
2013-4-12,48.4,41.9,36.2,42.0,38.7,33.9,95,89,73,30.19,29.68,9,2,18,0.30
2013-4-13,50.5,42.5,38.8,45.1,38.7,33.3,94,87,74,29.99,29.73,11,2,23,0.24
2013-4-14,55.5,45.0,37.9,43.5,38.8,34.7,96,81,51,30.01,29.91,7,2,13,0.16
2013-4-15,57.8,45.1,37.2,43.6,39.5,35.4,95,82,56,30.16,29.94,15,2,23,0.02
2013-4-16,60.8,42.7,30.2,43.9,35.4,28.9,96,78,42,30.40,30.18,13,2,19,0.01
2013-4-17,61.9,47.3,32.5,43.8,37.9,30.9,96,73,38,30.46,30.39,8,2,14,0.00
2013-4-18,50.4,47.1,44.0,46.8,43.4,40.4,95,87,76,30.45,30.20,6,1,14,0.31
2013-4-19,55.3,50.6,48.1,52.7,48.9,46.4,100,94,87,30.20,30.05,7,2,13,0.61
2013-4-20,56.0,49.5,46.7,48.8,46.2,44.4,96,89,71,30.27,30.19,9,1,16,0.26
2013-4-21,55.7,47.1,39.6,47.8,43.8,37.1,100,89,66,30.35,30.23,11,2,17,0.26
2013-4-22,62.3,44.9,30.9,44.4,35.1,27.6,97,73,33,30.53,30.37,11,3,17,0.01
2013-4-23,65.5,45.3,31.6,44.6,35.7,29.8,95,73,31,30.43,30.25,12,2,17,0.00
2013-4-24,71.6,52.9,33.4,48.9,39.1,31.9,96,65,28,30.33,30.07,10,2,16,0.00
2013-4-25,74.3,52.8,36.7,49.3,41.4,34.9,95,69,37,30.13,30.04,7,1,11,0.00
2013-4-26,67.8,53.6,41.4,51.3,45.6,39.5,100,77,49,30.25,30.14,9,1,14,0.00
2013-4-27,55.9,52.7,48.5,49.8,46.1,40.8,95,79,57,30.21,30.13,9,2,19,0.25
2013-4-28,57.1,50.9,46.8,49.4,46.4,42.5,96,85,71,30.22,29.92,9,2,22,0.20
2013-4-29,57.5,49.7,44.6,46.3,37.7,33.5,91,65,44,30.15,29.91,16,9,32,0.09
2013-4-30,58.6,46.5,35.7,42.4,35.2,28.9,94,67,36,30.44,30.15,9,2,19,0.09
2013-5-1,65.7,49.0,29.7,43.3,36.2,28.0,95,65,40,30.58,30.45,8,2,14,0.00
2013-5-2,70.5,53.9,38.0,47.5,41.4,35.8,94,65,40,30.55,30.36,14,4,22,0.00
2013-5-3,70.8,53.2,38.4,52.7,43.7,36.8,95,73,46,30.40,30.22,13,4,23,0.00
2013-5-4,77.7,60.1,41.5,54.2,46.7,39.6,95,65,38,30.25,30.01,12,4,20,0.00
2013-5-5,81.9,63.2,42.8,55.9,49.1,41.2,95,65,36,30.01,29.76,11,3,15,0.00
2013-5-6,87.3,66.1,45.5,58.5,49.9,43.9,96,61,32,29.85,29.75,9,2,15,0.00
2013-5-7,74.0,58.7,45.6,57.3,50.7,44.0,96,77,51,29.96,29.81,8,2,12,0.00
2013-5-8,66.0,54.0,45.5,54.7,49.7,44.2,96,86,66,30.15,29.99,5,1,9,0.00
2013-5-9,72.5,56.7,45.6,59.2,50.7,44.2,96,82,55,30.22,30.11,7,2,10,0.00
2013-5-10,79.3,61.0,44.0,61.2,51.7,42.6,96,74,48,30.20,30.10,8,2,13,0.00
2013-5-11,82.7,61.3,50.1,59.5,51.3,47.8,92,73,41,30.17,29.98,9,1,14,0.00
2013-5-12,71.2,62.2,56.0,58.9,56.1,50.3,96,81,62,30.08,29.99,6,1,14,0.22
2013-5-13,65.7,57.7,47.4,56.5,52.1,45.5,94,82,57,30.19,29.92,11,3,31,0.18
2013-5-14,66.1,54.7,46.2,47.1,44.9,41.4,96,72,46,30.22,30.12,5,1,12,0.00
2013-5-15,69.0,51.8,41.1,50.9,44.5,39.5,96,79,43,30.12,30.01,5,1,20,0.07
2013-5-16,70.7,58.0,51.9,56.4,52.3,49.9,95,83,58,30.02,29.86,9,2,14,0.05
2013-5-17,61.0,56.0,52.3,53.5,51.1,48.8,94,84,69,30.04,29.93,6,1,15,0.04
2013-5-18,62.9,57.0,52.8,51.4,48.5,44.2,85,74,51,30.27,30.04,5,2,10,0.00
2013-5-19,68.1,56.4,50.5,54.6,50.0,46.6,95,80,57,30.40,30.27,7,2,11,0.09
2013-5-20,69.0,54.6,40.2,54.0,47.4,38.9,96,78,52,30.35,29.95,9,2,15,0.00
2013-5-21,55.4,50.0,47.4,50.6,47.4,45.9,95,91,83,29.91,29.78,4,1,11,0.67
2013-5-22,52.2,48.6,46.3,48.9,46.3,44.3,95,92,84,29.94,29.85,5,1,10,0.06
2013-5-23,59.2,49.8,44.5,49.3,45.7,43.2,97,87,62,30.01,29.92,7,1,19,0.05
2013-5-24,64.5,53.1,41.1,49.3,45.4,40.0,96,77,55,30.04,29.98,4,1,9,0.01
2013-5-25,65.3,56.4,49.7,50.3,48.1,45.4,93,75,50,30.03,29.98,6,1,13,0.02
2013-5-26,64.3,56.2,50.7,56.5,51.5,48.2,94,85,68,29.99,29.94,5,1,11,0.11
2013-5-27,62.0,55.9,51.2,55.6,51.9,48.8,93,87,73,29.95,29.71,4,1,11,0.10
2013-5-28,64.8,57.1,52.6,52.4,50.6,48.4,91,79,61,29.87,29.76,6,3,17,0.03
2013-5-29,57.0,53.3,50.9,52.1,50.0,48.8,95,89,80,29.95,29.67,5,0,10,0.28
2013-5-30,60.6,52.9,48.5,54.2,49.7,47.1,96,89,71,30.23,29.96,4,0,9,0.40
2013-5-31,68.1,57.5,48.8,53.1,49.1,44.5,95,75,49,30.34,30.24,7,1,12,0.03
2013-6-1,72.1,58.9,46.9,54.7,49.6,44.1,93,73,48,30.25,30.06,9,2,15,0.01
2013-6-2,70.5,60.1,52.9,54.0,50.8,47.9,89,73,51,30.09,30.04,11,5,17,0.01
2013-6-3,73.8,60.0,45.5,57.5,51.5,44.1,96,75,53,30.11,30.06,9,2,14,0.00
2013-6-4,79.0,63.9,46.3,59.5,52.6,44.6,95,69,45,30.14,30.02,9,3,14,0.00
2013-6-5,77.8,62.3,49.2,60.4,53.7,46.6,92,75,51,30.10,30.03,9,4,16,0.00
2013-6-6,81.0,63.7,47.9,60.4,51.3,40.4,96,67,39,30.06,30.00,10,2,16,0.00
2013-6-7,67.6,60.6,53.6,52.9,48.8,44.4,77,66,50,30.15,30.02,8,3,13,0.00
2013-6-8,68.1,57.7,49.9,53.2,48.9,46.5,88,73,57,30.19,30.11,9,3,15,0.00
2013-6-9,68.9,58.2,49.6,50.7,47.7,44.6,91,70,45,30.12,30.04,11,4,18,0.00
2013-6-10,71.9,55.0,42.1,53.8,46.5,40.2,96,75,47,30.05,29.88,8,2,14,0.00
2013-6-11,65.3,57.1,50.8,50.9,48.3,45.7,88,73,53,30.09,29.94,6,1,14,0.00
2013-6-12,69.9,58.4,50.0,50.6,48.4,46.7,90,71,47,30.13,30.09,6,1,14,0.00
2013-6-13,70.5,58.3,53.2,52.9,51.1,48.9,94,78,49,30.21,30.13,9,2,18,0.02
2013-6-14,67.3,57.8,53.3,52.1,49.7,48.5,86,75,55,30.23,30.07,6,1,12,0.00
2013-6-15,76.6,62.0,44.0,58.2,52.4,42.3,96,73,48,30.06,29.90,9,3,14,0.00
2013-6-16,74.2,62.2,49.1,59.4,54.4,47.6,96,77,54,30.08,29.98,8,1,12,0.00
2013-6-17,77.7,62.5,49.2,58.5,52.7,47.5,95,73,40,30.09,29.88,7,1,12,0.10
2013-6-18,75.7,62.7,52.7,55.4,52.3,42.9,96,72,36,29.97,29.86,9,1,15,0.00
2013-6-19,67.7,59.3,54.4,55.8,52.2,48.8,94,78,54,30.00,29.91,6,1,13,0.18
2013-6-20,57.8,54.9,53.1,54.3,52.5,50.5,95,92,77,30.11,29.96,5,1,10,1.04
2013-6-21,69.1,59.5,52.7,56.7,53.5,51.4,96,82,60,30.16,30.10,4,0,7,0.05
2013-6-22,78.7,64.6,49.9,58.5,53.7,48.5,96,71,42,30.13,29.86,8,1,13,0.00
2013-6-23,72.1,64.7,55.0,62.3,58.0,52.5,93,80,64,29.86,29.59,4,0,8,0.00
2013-6-24,68.0,62.2,58.1,61.3,57.9,54.5,95,87,64,29.69,29.56,7,1,17,0.14
2013-6-25,73.3,61.1,56.1,61.5,56.5,54.7,95,86,56,29.85,29.67,8,1,20,0.29
2013-6-26,69.9,62.4,54.0,63.1,57.5,52.4,96,85,67,30.08,29.84,5,1,14,0.21
2013-6-27,73.4,65.1,58.5,64.8,60.6,56.5,95,86,71,30.20,30.04,5,1,12,0.14
2013-6-28,87.1,71.4,59.0,70.0,62.7,57.6,96,76,44,30.19,30.03,8,2,12,0.00
2013-6-29,84.3,72.3,61.7,67.3,62.4,58.1,93,73,50,30.09,29.99,9,1,13,0.00
2013-6-30,91.7,74.8,56.5,71.4,63.2,54.7,94,70,48,30.01,29.84,8,2,12,0.00
2013-7-1,86.6,73.1,60.2,68.4,61.4,56.6,90,68,52,30.00,29.90,9,3,12,0.00
2013-7-2,78.0,65.3,57.1,63.0,55.9,51.5,92,73,46,30.11,30.04,9,4,16,0.00
2013-7-3,79.4,64.1,50.8,58.8,52.0,46.4,91,67,33,30.16,30.05,10,3,15,0.00
2013-7-4,72.2,62.6,55.7,56.4,53.1,49.7,86,72,51,30.12,30.02,7,2,11,0.00
2013-7-5,76.8,61.9,49.0,58.1,53.7,47.3,96,76,50,30.04,29.94,5,1,8,0.00
2013-7-6,78.4,66.5,49.6,61.4,55.8,47.9,96,71,51,29.97,29.85,9,3,16,0.00
2013-7-7,79.3,66.8,52.5,62.0,56.0,50.5,94,70,47,29.94,29.86,6,1,11,0.00
2013-7-8,80.0,66.4,52.5,61.8,57.0,50.5,95,74,49,30.09,29.94,7,2,11,0.00
2013-7-9,82.9,65.2,52.3,64.4,55.8,50.5,95,74,47,30.11,30.01,9,2,15,0.00
2013-7-10,72.9,62.1,54.7,58.8,53.4,48.9,86,74,58,30.06,29.97,11,4,17,0.00
2013-7-11,71.3,59.9,51.5,52.9,49.5,45.8,82,70,46,30.08,30.00,9,3,14,0.00
2013-7-12,69.0,57.8,46.0,56.0,50.3,44.0,94,77,60,30.11,30.01,5,1,12,0.00
2013-7-13,76.0,61.5,43.4,55.7,49.8,41.8,96,68,41,30.20,30.10,11,4,17,0.00
2013-7-14,81.9,63.8,44.9,58.2,50.2,43.3,96,65,36,30.14,30.00,10,2,14,0.00
2013-7-15,80.8,65.0,47.2,57.5,51.0,45.4,95,65,37,30.06,29.89,13,5,23,0.00
2013-7-16,85.7,69.9,51.6,60.6,54.1,48.8,93,61,35,29.91,29.79,11,3,17,0.00
2013-7-17,72.1,66.4,61.2,60.8,58.4,55.1,95,76,62,30.18,29.86,7,2,20,0.07
2013-7-18,78.3,66.2,58.3,62.3,56.5,53.2,86,72,53,30.23,30.12,7,4,14,0.00
2013-7-19,79.4,64.1,53.2,63.0,56.7,51.1,94,78,54,30.18,30.04,8,4,13,0.00
2013-7-20,76.7,61.7,54.2,62.0,56.0,52.1,95,83,60,30.09,29.96,8,3,13,0.00
2013-7-21,75.7,62.7,53.8,62.3,56.7,52.0,96,82,61,29.98,29.89,6,2,11,0.00
2013-7-22,79.0,64.6,54.5,63.0,57.6,53.0,95,79,57,30.06,29.94,6,2,11,0.00
2013-7-23,85.4,66.3,52.8,63.4,56.1,51.0,96,73,41,30.07,29.95,11,3,16,0.00
2013-7-24,85.1,67.1,53.3,61.2,54.9,50.0,92,68,43,30.06,29.99,7,3,13,0.00
2013-7-25,86.1,65.6,50.1,63.2,54.2,48.4,96,70,34,30.10,30.04,8,2,14,0.00
2013-7-26,86.4,65.6,47.7,61.5,51.5,46.1,95,65,34,30.15,30.08,10,2,16,0.00
2013-7-27,78.3,63.8,47.0,57.2,51.8,45.1,94,68,40,30.15,29.99,8,2,15,0.00
2013-7-28,71.8,60.2,48.0,57.0,53.0,46.1,95,78,59,30.02,29.94,6,1,13,0.00
2013-7-29,76.8,62.2,52.8,58.9,54.6,50.8,94,78,52,30.01,29.94,5,0,10,0.00
2013-7-30,78.2,63.6,50.4,60.6,55.5,48.7,96,77,53,30.13,30.00,8,1,12,0.00
2013-7-31,73.0,61.7,54.9,61.5,57.3,53.3,95,86,67,30.12,29.98,7,1,10,0.02
2013-8-1,66.0,61.5,57.5,58.4,56.6,55.0,93,84,75,30.06,30.02,4,1,9,0.01
2013-8-2,62.8,59.8,57.7,58.9,57.2,54.8,98,91,78,30.13,30.04,3,0,10,0.67
2013-8-3,77.0,65.2,58.4,62.6,59.1,55.8,96,82,59,30.13,30.05,7,2,12,0.00
2013-8-4,80.8,66.2,53.1,64.9,58.4,51.4,96,78,55,30.07,29.93,8,2,12,0.00
2013-8-5,85.4,68.0,52.3,65.2,57.9,50.9,96,73,46,30.01,29.92,9,2,14,0.00
2013-8-6,85.5,64.6,50.9,62.0,53.9,48.9,95,72,37,30.00,29.90,6,2,13,0.00
2013-8-7,87.6,68.0,53.0,61.5,56.0,50.8,94,69,40,30.00,29.94,8,2,13,0.00
2013-8-8,82.6,67.6,56.3,63.4,57.5,53.8,94,72,49,30.03,29.95,9,3,14,0.00
2013-8-9,84.4,68.2,55.0,62.7,57.8,52.6,93,72,45,29.97,29.82,7,2,11,0.00
2013-8-10,81.6,68.7,61.1,64.8,60.8,55.8,94,77,55,30.01,29.84,9,2,13,0.11
2013-8-11,74.8,64.4,57.6,60.4,57.2,53.8,93,78,57,30.06,29.98,8,2,13,0.03
2013-8-12,78.7,65.4,56.6,60.4,56.6,53.7,91,75,52,30.07,30.00,9,2,15,0.00
2013-8-13,81.0,67.4,55.8,61.4,56.8,53.1,92,71,48,30.10,29.93,8,2,12,0.00
2013-8-14,83.4,64.5,52.0,63.3,56.7,50.4,95,79,44,29.95,29.89,4,0,13,0.03
2013-8-15,70.6,66.6,63.5,66.0,64.0,62.0,96,92,81,29.99,29.91,4,0,11,0.09
2013-8-16,84.4,70.8,62.7,66.3,62.4,58.6,97,77,45,30.00,29.93,9,1,15,0.00
2013-8-17,77.0,66.8,59.1,62.3,59.3,55.6,93,78,57,30.07,29.99,8,1,11,0.00
2013-8-18,78.5,66.0,56.4,60.9,56.7,52.2,94,73,54,30.11,30.07,9,2,16,0.00
2013-8-19,78.9,66.3,58.5,59.8,55.5,50.5,87,69,52,30.12,30.06,12,3,20,0.00
2013-8-20,76.8,64.5,50.9,59.6,53.7,48.9,95,70,47,30.17,30.07,11,4,21,0.00
2013-8-21,80.5,64.1,46.8,59.1,52.6,45.4,96,69,45,30.10,29.93,10,3,16,0.00
2013-8-22,85.9,66.0,50.5,61.5,55.4,48.6,94,72,40,29.95,29.78,6,1,10,0.00
2013-8-23,73.6,65.9,58.0,60.1,57.0,54.8,90,74,57,29.89,29.82,7,1,14,0.00
2013-8-24,73.8,63.9,59.0,61.9,57.6,53.5,95,81,60,29.92,29.85,10,1,17,0.21
2013-8-25,76.9,61.6,48.4,61.0,55.2,47.0,96,81,51,29.95,29.86,6,1,11,0.01
2013-8-26,75.8,65.4,58.0,60.8,57.8,52.6,94,78,48,29.95,29.84,5,1,13,0.02
2013-8-27,81.1,68.8,60.0,62.0,59.2,57.1,90,73,49,29.95,29.79,6,1,12,0.03
2013-8-28,80.9,68.3,59.4,66.3,61.7,57.1,96,81,55,29.88,29.82,5,0,10,0.15
2013-8-29,75.1,66.2,62.7,66.6,63.3,60.5,97,91,68,29.99,29.85,5,1,13,0.60
2013-8-30,78.5,67.6,57.6,63.0,58.4,54.1,96,75,44,30.14,29.99,8,2,16,0.00
2013-8-31,80.2,64.4,50.4,62.7,56.5,49.3,96,78,53,30.09,29.84,9,2,14,0.00
2013-9-1,81.9,65.8,52.3,62.8,57.3,50.9,97,77,50,29.88,29.78,5,1,12,0.00
2013-9-2,83.5,67.3,54.6,62.3,58.0,53.1,96,75,47,29.94,29.85,7,1,11,0.00
2013-9-3,71.5,63.9,58.2,64.3,60.4,56.1,96,89,72,30.03,29.93,5,1,8,0.16
2013-9-4,71.8,62.4,55.2,63.0,59.1,53.9,97,89,72,30.05,30.00,7,1,12,0.00
2013-9-5,69.3,61.7,55.4,62.9,59.0,54.3,97,91,79,30.05,29.91,10,2,14,0.22
2013-9-6,70.7,62.9,60.0,64.0,60.8,59.1,97,93,78,30.10,29.94,4,0,9,1.21
2013-9-7,76.1,66.1,59.6,63.9,60.8,57.6,96,84,63,30.10,30.01,7,1,12,0.01
2013-9-8,78.3,64.9,55.2,65.1,59.4,54.1,97,84,58,30.11,30.02,6,1,10,0.00
2013-9-9,79.6,64.9,56.3,65.7,59.3,55.4,97,84,58,30.07,29.97,9,2,13,0.00
2013-9-10,77.6,64.2,54.8,65.9,59.2,54.0,97,85,66,30.00,29.88,8,2,14,0.00
2013-9-11,90.9,66.7,52.4,68.5,58.7,51.3,97,79,40,29.95,29.86,6,1,11,0.00
2013-9-12,80.9,67.6,54.5,65.9,60.1,53.4,97,79,57,30.00,29.89,6,1,11,0.00
2013-9-13,65.3,61.7,57.2,61.3,59.1,55.7,97,91,86,29.97,29.87,5,0,8,0.01
2013-9-14,68.3,63.5,59.5,62.0,60.3,58.1,95,89,80,29.88,29.74,5,1,8,0.00
2013-9-15,65.3,61.6,58.1,62.3,59.8,57.3,97,94,87,29.80,29.71,5,1,13,0.23
2013-9-16,65.2,61.9,57.4,60.9,58.4,53.6,96,88,80,29.94,29.79,6,1,12,0.02
2013-9-17,62.3,58.0,54.4,56.2,54.4,52.1,96,88,77,29.93,29.86,5,0,10,0.02
2013-9-18,67.3,57.5,50.1,57.1,52.1,48.3,97,84,54,30.07,29.93,3,0,7,0.02
2013-9-19,79.4,59.9,43.2,56.1,50.0,42.1,97,74,38,30.06,29.77,3,0,10,0.00
2013-9-20,77.4,59.8,45.5,56.5,51.2,44.2,96,77,45,29.75,29.57,7,1,14,0.01
2013-9-21,69.1,61.1,54.3,56.5,54.8,51.8,93,81,60,29.71,29.63,5,1,15,0.00
2013-9-22,60.3,58.3,54.6,55.3,53.5,49.7,93,84,69,29.71,29.56,6,2,21,0.15
2013-9-23,61.5,56.7,51.9,55.3,52.2,50.3,95,85,75,29.97,29.71,8,2,16,0.15
2013-9-24,63.0,54.6,49.5,52.8,49.9,47.8,96,85,61,29.97,29.83,5,0,12,0.18
2013-9-25,58.2,52.6,43.3,51.2,49.0,41.6,95,88,74,30.03,29.86,9,2,15,0.02
2013-9-26,63.1,48.8,37.6,51.8,44.8,36.6,97,87,66,30.13,30.03,4,0,8,0.00
2013-9-27,55.2,51.3,42.0,52.7,49.0,40.7,96,92,84,30.12,29.84,3,0,11,0.12
2013-9-28,59.6,55.5,51.1,58.2,53.4,49.6,97,93,89,29.83,29.32,8,3,22,0.74
2013-9-29,56.6,54.0,51.9,51.8,49.8,47.6,94,86,76,29.53,29.14,10,4,23,0.27
2013-9-30,59.0,53.6,50.1,51.4,48.1,44.7,88,82,73,29.89,29.37,9,3,20,0.01
2013-10-1,57.1,52.1,48.1,48.7,46.3,43.5,91,81,65,30.10,29.89,6,1,16,0.10
2013-10-2,53.2,50.7,48.8,50.0,48.5,47.1,95,92,88,30.13,30.06,2,0,7,0.31
2013-10-3,60.7,49.7,41.7,49.8,46.1,40.3,96,88,63,30.45,30.17,6,1,10,0.00
2013-10-4,64.5,50.3,37.4,50.8,44.4,36.1,100,83,53,30.49,30.35,3,0,7,0.00
2013-10-5,70.9,54.5,43.8,52.4,46.9,42.6,96,78,43,30.36,30.14,7,1,9,0.00
2013-10-6,78.3,56.9,40.2,54.0,45.0,39.2,97,70,29,30.13,29.86,6,1,16,0.00
2013-10-7,58.5,54.3,51.5,53.5,50.9,49.1,94,88,75,29.99,29.86,5,1,15,0.41
2013-10-8,57.8,51.1,40.6,51.9,47.2,38.7,96,87,63,30.08,29.95,11,2,18,0.33
2013-10-9,58.5,45.9,34.7,46.9,41.4,33.7,97,86,61,30.14,29.96,2,0,7,0.00
2013-10-10,59.0,49.7,43.9,49.8,46.1,42.1,96,88,70,30.07,29.94,6,1,9,0.00
2013-10-11,56.7,49.0,40.6,50.7,46.1,39.5,97,90,77,30.14,30.07,2,0,6,0.00
2013-10-12,57.2,50.0,40.4,50.6,47.0,39.1,97,90,72,30.22,30.07,10,2,15,0.24
2013-10-13,56.2,46.3,38.4,49.3,43.7,36.9,97,91,75,30.37,30.22,3,0,7,0.00
2013-10-14,38.2,37.4,35.9,37.2,36.4,34.7,96,96,95,30.41,30.37,0,0,1,0.00
2013-10-15,63.2,47.3,35.3,51.2,43.0,34.3,97,86,61,30.40,30.17,5,0,9,0.01
2013-10-16,55.1,48.6,41.6,49.8,46.3,40.1,100,92,81,30.20,30.15,6,1,11,0.00
2013-10-17,61.1,50.7,41.9,51.4,47.0,40.6,96,88,66,30.28,30.20,4,0,7,0.00
2013-10-18,59.8,46.4,39.4,52.3,43.8,38.4,97,91,73,30.25,30.15,5,1,8,0.01
2013-10-19,50.1,45.5,41.3,48.4,44.3,40.2,98,95,90,30.20,30.15,5,1,7,0.01
2013-10-20,50.2,48.1,46.6,47.7,46.3,45.4,98,93,90,30.21,30.15,4,0,7,0.01
2013-10-21,51.3,48.5,46.0,48.8,46.9,44.9,97,94,91,30.17,30.10,4,1,7,0.00
2013-10-22,52.7,48.3,45.8,49.9,47.2,44.9,97,96,90,30.12,30.04,4,0,7,0.01
2013-10-23,60.6,48.0,42.1,53.0,45.8,40.7,98,92,75,30.06,29.97,3,0,6,0.01
2013-10-24,55.2,46.0,40.8,50.8,44.5,40.0,97,95,85,30.10,30.02,3,0,6,0.01
2013-10-25,52.4,48.7,47.1,49.5,47.0,45.5,97,94,86,30.32,30.12,2,0,7,0.01
2013-10-26,53.5,50.3,47.4,47.8,46.8,45.3,95,88,79,30.34,30.18,6,1,11,0.01
2013-10-27,57.5,49.5,40.1,49.3,45.9,38.4,96,88,71,30.19,29.89,15,3,24,0.24
2013-10-28,62.4,44.6,33.6,43.2,36.5,32.6,97,77,41,29.96,29.87,11,2,20,0.00
2013-10-29,58.6,40.3,29.3,42.0,34.5,28.0,96,82,46,30.04,29.95,2,0,8,0.01
2013-10-30,56.0,43.5,30.3,47.7,38.9,28.8,100,85,66,30.12,30.04,5,0,16,0.00
2013-10-31,52.1,49.8,47.9,50.7,47.6,44.2,97,92,80,30.25,30.08,4,0,12,0.15
2013-11-1,58.8,52.8,48.8,54.0,50.5,48.0,97,92,78,30.26,29.83,3,0,6,0.02
2013-11-2,53.6,48.6,42.6,50.5,46.1,40.7,96,91,80,29.88,29.44,14,3,34,1.03
2013-11-3,51.4,41.1,31.4,46.2,39.0,29.8,97,92,68,30.12,29.85,7,0,12,0.27
2013-11-4,48.6,38.2,27.9,40.6,34.7,26.9,97,88,67,30.20,30.07,3,0,7,0.06
2013-11-5,46.4,43.5,41.1,45.6,42.4,39.2,97,96,93,30.26,30.02,5,0,7,0.12
2013-11-6,52.4,45.9,39.5,48.1,43.9,38.7,98,93,80,30.32,30.02,2,0,5,0.08
2013-11-7,50.1,48.5,46.6,48.6,46.5,45.4,97,93,86,30.02,29.70,8,2,20,0.37
2013-11-8,56.7,47.7,40.4,48.0,44.8,38.8,97,90,67,30.16,29.97,5,0,13,0.06
2013-11-9,50.8,43.5,35.0,45.3,41.0,34.0,97,91,77,30.16,30.07,5,0,7,0.03
2013-11-10,48.9,45.8,43.6,46.6,44.3,42.5,97,95,90,30.16,30.10,6,1,10,0.07
2013-11-11,59.4,45.9,36.3,51.2,43.3,35.3,97,91,66,30.17,30.01,4,0,6,0.00
2013-11-12,56.4,50.1,41.9,52.6,47.6,40.8,97,92,84,30.34,30.02,5,1,11,0.06
2013-11-13,57.0,52.7,49.0,50.6,49.0,47.2,95,87,76,30.43,30.31,5,1,11,0.00
2013-11-14,50.0,47.8,42.7,48.4,46.0,41.1,97,94,88,30.31,30.05,6,1,9,0.03
2013-11-15,46.8,44.5,43.1,45.7,43.1,39.8,96,95,78,30.06,29.32,15,2,34,0.74
2013-11-16,46.8,41.4,37.9,43.7,39.7,36.6,97,94,82,29.76,29.34,8,1,17,0.56
2013-11-17,50.0,45.6,35.4,46.9,43.1,33.9,97,91,83,29.89,29.76,6,1,17,0.08
2013-11-18,51.6,49.6,48.6,49.8,47.6,45.2,97,93,87,29.89,29.53,5,1,17,0.22
2013-11-19,52.1,43.6,34.4,50.4,36.2,23.2,96,77,50,30.07,29.52,10,3,17,0.26
2013-11-20,44.9,32.7,25.6,32.9,27.3,23.3,95,82,55,30.52,30.08,8,1,12,0.00
2013-11-21,43.8,29.6,21.5,31.1,25.0,19.8,94,84,55,30.68,30.52,7,1,10,0.01
2013-11-22,46.3,30.8,21.8,32.9,26.5,20.1,94,85,55,30.67,30.47,5,1,8,0.00
2013-11-23,47.2,31.5,24.8,37.4,17.2,-99.9,95,77,67,30.47,30.21,7,0,10,0.01
2013-11-24,52.2,34.7,25.6,39.9,31.3,24.4,96,88,62,30.26,30.18,2,0,4,0.00
2013-11-25,53.3,36.8,27.8,40.0,32.7,26.6,96,86,57,30.32,30.26,1,0,3,0.01
2013-11-26,54.1,37.8,26.1,41.7,34.1,24.9,96,87,59,30.27,30.11,2,0,5,0.00
2013-11-27,55.9,40.9,32.4,44.3,37.7,30.9,95,89,64,30.10,29.96,2,0,5,0.00
2013-11-28,57.1,38.1,29.2,42.6,34.2,28.2,97,87,49,30.18,30.02,2,0,4,0.01
2013-11-29,49.6,42.7,37.1,44.2,40.0,35.5,95,90,79,30.31,30.16,3,0,8,0.01
2013-11-30,50.6,48.3,45.5,47.8,44.8,43.3,95,88,78,30.32,30.07,4,1,14,0.12
2013-12-1,52.0,48.9,41.7,50.1,47.0,35.8,96,93,77,30.06,29.74,11,2,28,0.54
2013-12-2,45.5,39.4,34.4,39.0,34.8,32.0,95,84,71,30.05,29.79,13,2,28,0.04
2013-12-3,41.6,31.2,23.3,33.4,25.7,21.2,96,81,57,30.32,30.05,6,1,9,0.00
2013-12-4,40.7,29.0,21.3,28.2,22.9,18.8,93,79,56,30.36,30.31,3,0,5,0.00
2013-12-5,33.7,24.7,18.1,25.9,21.0,16.2,93,86,69,30.34,30.21,2,0,5,0.00
2013-12-6,35.7,22.3,15.5,19.0,14.2,7.5,92,73,43,30.26,30.16,6,1,10,0.00
2013-12-7,32.9,19.8,11.0,12.4,7.5,3.4,85,60,33,30.44,30.26,5,1,8,0.00
2013-12-8,35.0,22.1,10.7,19.0,15.0,7.5,89,76,49,30.58,30.44,3,0,7,0.00
2013-12-9,31.5,25.8,14.8,27.5,21.5,12.1,90,84,75,30.60,30.50,1,0,4,0.00
2013-12-10,39.1,33.6,30.1,33.2,30.2,27.5,93,87,79,30.50,30.42,1,0,4,0.00
2013-12-11,42.3,32.5,26.0,33.2,28.9,24.4,95,87,68,30.43,30.16,1,0,4,0.00
2013-12-12,46.0,37.8,27.7,41.9,33.9,26.2,95,86,64,30.17,30.03,7,1,17,0.02
2013-12-13,46.6,44.8,42.8,45.5,43.5,41.6,100,95,89,30.41,30.12,3,0,10,0.04
2013-12-14,49.2,46.2,41.1,45.0,43.4,39.6,96,90,83,30.42,30.31,4,1,10,0.02
2013-12-15,49.4,47.8,44.0,48.0,45.9,43.1,97,93,85,30.45,30.32,4,1,13,0.03
2013-12-16,51.0,40.0,31.3,45.5,38.2,30.3,98,93,77,30.50,30.27,4,0,6,0.01
2013-12-17,40.7,36.0,30.5,39.8,35.1,29.5,97,97,96,30.27,30.11,3,0,5,0.00
2013-12-18,46.2,39.2,29.8,40.8,36.0,26.6,97,89,68,30.16,30.03,11,2,19,0.00
2013-12-19,38.6,31.0,24.0,31.0,27.0,21.2,92,85,70,30.35,30.15,5,0,9,0.01
2013-12-20,36.6,33.9,30.9,35.6,32.5,28.6,97,95,91,30.20,29.72,5,1,15,0.62
2013-12-21,41.2,37.4,34.9,40.1,36.6,34.1,97,97,95,30.17,29.85,3,0,5,0.39
2013-12-22,48.1,41.8,38.4,47.6,41.0,37.6,98,97,97,30.29,30.17,4,1,7,0.66
2013-12-23,50.4,46.8,38.9,48.7,44.1,36.8,97,90,74,30.51,30.12,14,4,32,0.39
2013-12-24,46.3,39.0,29.5,43.1,37.4,28.3,97,94,86,30.62,30.51,3,0,5,0.05
2013-12-25,46.0,34.9,26.7,39.7,32.4,25.6,97,91,70,30.55,30.40,2,0,4,0.01
2013-12-26,48.3,38.3,30.6,39.4,35.1,29.3,96,89,70,30.41,30.21,3,0,5,0.00
2013-12-27,42.8,37.1,30.6,42.0,36.2,29.3,97,97,95,30.36,30.10,2,0,5,0.05
2013-12-28,46.6,40.6,35.6,45.1,39.4,34.4,98,95,86,30.52,30.36,3,0,6,0.00
2013-12-29,41.8,39.4,37.2,40.2,38.3,36.4,97,96,93,30.48,30.32,1,0,3,0.00
2013-12-30,43.6,40.0,35.8,42.1,38.9,35.0,100,96,93,30.33,30.12,6,0,11,0.06
2013-12-31,46.5,43.8,40.1,44.9,42.6,39.1,97,96,92,30.37,30.19,2,0,6,0.03
2014-1-1,44.4,39.1,32.4,42.4,38.0,31.6,98,96,91,30.41,30.24,2,0,5,0.01
2014-1-2,51.2,44.4,40.2,45.7,41.9,38.6,98,91,70,30.24,29.90,12,2,24,0.57